Westfield, MA

7:12 PM EDT on April 25, 2017 (GMT -0400)
Barnes Municipal

Weather History for KBAF - November, 2012

Change the Weather History Date:

Wednesday, November 7, 2012

  Actual Average Record
Temperature  
Mean Temperature 31 °F -  
Max Temperature 36 °F 49 °F 68 °F (2004)
Min Temperature 26 °F 30 °F 21 °F (1998)
Degree Days  
Heating Degree Days 34    
Moisture  
Dew Point 20 °F    
Average Humidity 62    
Maximum Humidity 82    
Minimum Humidity 43    
Precipitation  
Precipitation 0.00 in - - ()
Sea Level Pressure  
Sea Level Pressure 29.96 in    
Wind  
Wind Speed 14 mph (NNE)    
Max Wind Speed 28 mph    
Max Gust Speed 46 mph    
Visibility 6 miles    
Events Rain , Snow    
Averages and records for this station are not official NWS values.
T = Trace of Precipitation, MM = Missing Value Source: NWS Daily Summary

Daily Weather History Graph

Daily Weather History Graph

Search for Another Location

Airport or City:

Trip Planner

Search our weather history database for the weather conditions in past years. The results will help you decide how hot, cold, wet, or windy it might be!

Date:

Astronomy

Nov. 07, 2012 Rise Set
Actual Time 6:31 AM EST 4:36 PM EST
Civil Twilight 6:02 AM EST 5:06 PM EST
Nautical Twilight 5:28 AM EST 5:39 PM EST
Astronomical Twilight 4:56 AM EST 6:12 PM EST
Moon No Moon Rise 12:51 PM EST (11/7)
Length of Visible Light 11h 04m
Length of Day
10h 05m
Last Quarter, 43% of the Moon is Illuminated
Nov 7
Last Quarter
Nov 13
New
Nov 20
First Quarter
Nov 28
Full
Dec 6
Last Quarter

Hourly Weather History & Observations

Time (EST) Temp. Windchill Dew Point Humidity Pressure Visibility Wind Dir Wind Speed Gust Speed Precip Events Conditions
12:53 AM 26.1 °F 17.6 °F 17.1 °F 69% 30.17 in 10.0 mi North 8.1 mph - N/A   Clear
1:53 AM 28.0 °F 20.0 °F 18.0 °F 66% 30.17 in 10.0 mi North 8.1 mph - N/A   Clear
2:53 AM 30.0 °F 23.2 °F 17.1 °F 59% 30.16 in 10.0 mi North 6.9 mph - N/A   Scattered Clouds
3:53 AM 30.9 °F 20.7 °F 17.1 °F 57% 30.11 in 10.0 mi North 13.8 mph - N/A   Mostly Cloudy
4:53 AM 30.9 °F 20.2 °F 18.0 °F 59% 30.09 in 10.0 mi North 15.0 mph 20.7 mph N/A   Partly Cloudy
5:53 AM 32.0 °F 22.1 °F 18.0 °F 56% 30.08 in 10.0 mi North 13.8 mph - N/A   Mostly Cloudy
6:53 AM 33.1 °F 23.0 °F 17.1 °F 52% 30.08 in 10.0 mi NNE 15.0 mph 25.3 mph N/A   Mostly Cloudy
7:53 AM 33.1 °F 21.5 °F 17.1 °F 52% 30.07 in 10.0 mi North 19.6 mph 24.2 mph N/A   Mostly Cloudy
8:53 AM 34.0 °F 23.4 °F 18.0 °F 52% 30.05 in 10.0 mi NNE 17.3 mph - N/A   Partly Cloudy
9:53 AM 34.0 °F 23.8 °F 19.0 °F 54% 30.04 in 10.0 mi NNE 16.1 mph 27.6 mph N/A   Overcast
10:41 AM 33.8 °F 24.3 °F 19.4 °F 56% 30.00 in 10.0 mi NNE 13.8 mph 26.5 mph N/A   Overcast
10:53 AM 34.0 °F 24.6 °F 19.0 °F 54% 30.02 in 10.0 mi NNE 13.8 mph 25.3 mph N/A   Overcast
11:53 AM 35.1 °F 24.8 °F 19.0 °F 52% 29.97 in 10.0 mi NNE 17.3 mph 24.2 mph N/A   Overcast
12:53 PM 34.0 °F 25.0 °F 19.0 °F 54% 29.96 in 6.0 mi NNE 12.7 mph 21.9 mph 0.00 in Snow Light Snow
1:05 PM 33.8 °F 22.8 °F 21.2 °F 60% 29.94 in 1.5 mi NNE 18.4 mph 31.1 mph 0.00 in Snow Light Snow
1:11 PM 32.0 °F 20.8 °F 23.0 °F 69% 29.94 in 0.8 mi NNE 17.3 mph 31.1 mph 0.00 in Snow Light Snow
1:27 PM 32.0 °F 24.2 °F 24.8 °F 75% 29.94 in 2.0 mi NNE 9.2 mph 19.6 mph 0.00 in Snow Light Snow
1:34 PM 32.0 °F 24.8 °F 24.8 °F 75% 29.94 in 5.0 mi NNE 8.1 mph - 0.00 in Snow Light Snow
1:53 PM 33.1 °F 23.4 °F 19.9 °F 59% 29.96 in 9.0 mi North 13.8 mph 20.7 mph 0.00 in   Overcast
2:46 PM 32.0 °F 20.5 °F 21.2 °F 64% 29.94 in 1.8 mi NNE 18.4 mph 24.2 mph 0.00 in Snow Light Snow
2:53 PM 30.9 °F 20.7 °F 23.0 °F 72% 29.96 in 1.0 mi NNE 13.8 mph 24.2 mph 0.00 in Snow Light Snow
3:53 PM 30.0 °F 17.9 °F 25.0 °F 82% 29.94 in 1.0 mi North 18.4 mph 26.5 mph 0.00 in Snow Light Snow
4:20 PM 30.2 °F 17.8 °F 24.8 °F 80% 29.91 in 1.0 mi North 19.6 mph 26.5 mph 0.00 in Snow Light Snow
4:43 PM 32.0 °F 22.1 °F 23.0 °F 69% 29.91 in 6.0 mi North 13.8 mph 27.6 mph 0.00 in   Overcast
4:53 PM 32.0 °F 22.1 °F 23.0 °F 69% 29.93 in 6.0 mi North 13.8 mph 24.2 mph 0.00 in Rain Light Rain
5:53 PM 35.1 °F 25.5 °F 16.0 °F 46% 29.92 in 10.0 mi North 15.0 mph 25.3 mph 0.00 in Rain Light Rain
6:53 PM 36.0 °F 26.0 °F 16.0 °F 44% 29.91 in 10.0 mi North 17.3 mph 26.5 mph 0.00 in Rain Light Rain
7:53 PM 36.0 °F 25.0 °F 15.1 °F 43% 29.89 in 10.0 mi North 20.7 mph 33.4 mph 0.00 in Rain Light Rain
8:53 PM 36.0 °F 24.7 °F 16.0 °F 44% 29.87 in 10.0 mi NNE 21.9 mph 34.5 mph 0.00 in Rain Light Rain
9:32 PM 33.8 °F 20.5 °F 19.4 °F 56% 29.85 in 3.0 mi NNE 27.6 mph 46.0 mph 0.00 in Rain Light Rain
9:40 PM 33.8 °F 21.0 °F 21.2 °F 60% 29.84 in 2.0 mi North 25.3 mph 36.8 mph 0.00 in Rain Light Rain
9:53 PM 32.0 °F 19.8 °F 24.1 °F 73% 29.86 in 1.8 mi North 20.7 mph 39.1 mph 0.00 in Rain Light Rain
10:00 PM 32.0 °F 20.1 °F 24.8 °F 75% 29.84 in 1.5 mi NNE 19.6 mph 39.1 mph N/A Rain Light Rain
10:07 PM 32.0 °F 20.1 °F 24.8 °F 75% 29.84 in 2.0 mi North 19.6 mph 33.4 mph 0.00 in Rain Light Rain
10:53 PM 33.1 °F 20.6 °F 24.1 °F 70% 29.83 in 2.5 mi North 23.0 mph 35.7 mph 0.00 in Rain Light Rain
11:06 PM 33.8 °F 22.2 °F 23.0 °F 65% 29.80 in 4.0 mi North 20.7 mph 36.8 mph 0.00 in Rain Light Rain
11:33 PM 33.8 °F 22.8 °F 23.0 °F 65% 29.80 in 9.0 mi North 18.4 mph 31.1 mph 0.00 in Rain Light Rain
11:53 PM 34.0 °F 21.3 °F 23.0 °F 64% 29.81 in 10.0 mi North 25.3 mph 33.4 mph 0.00 in Rain Light Rain